TimeCST,TemperatureF,Dew PointF,Humidity,Sea Level PressureIn,VisibilityMPH,Wind Direction,Wind SpeedMPH,Gust SpeedMPH,PrecipitationIn,Events,Conditions,WindDirDegrees,DateUTC
12:43 AM,33.8,30.2,87,29.83,4.0,WNW,8.1,-,N/A,,Overcast,300,2012-12-19 06:43:00
12:53 AM,34.0,30.9,89,29.85,4.0,WNW,9.2,-,N/A,,Overcast,300,2012-12-19 06:53:00
1:29 AM,33.8,30.2,87,29.86,4.0,NW,10.4,-,N/A,,Mostly Cloudy,310,2012-12-19 07:29:00
1:38 AM,33.8,30.2,87,29.86,4.0,WNW,9.2,-,N/A,,Overcast,300,2012-12-19 07:38:00
1:53 AM,33.1,30.0,89,29.90,3.0,NW,8.1,-,N/A,,Overcast,310,2012-12-19 07:53:00
2:26 AM,32.0,30.2,93,29.89,2.5,WNW,8.1,-,N/A,,Overcast,290,2012-12-19 08:26:00
2:41 AM,32.0,28.4,87,29.89,3.0,WNW,8.1,-,N/A,,Overcast,300,2012-12-19 08:41:00
2:53 AM,32.0,28.9,88,29.91,3.0,NW,9.2,-,N/A,,Overcast,320,2012-12-19 08:53:00
3:26 AM,30.2,28.4,93,29.91,3.0,WNW,8.1,-,N/A,,Overcast,290,2012-12-19 09:26:00
3:53 AM,30.9,28.0,89,29.94,3.0,NW,10.4,-,N/A,,Overcast,310,2012-12-19 09:53:00
4:38 AM,30.2,26.6,86,29.91,4.0,NW,5.8,-,N/A,,Scattered Clouds,320,2012-12-19 10:38:00
4:53 AM,30.0,26.1,85,29.95,3.0,WNW,6.9,-,N/A,,Clear,300,2012-12-19 10:53:00
5:53 AM,28.0,25.0,88,29.99,4.0,WSW,6.9,-,N/A,,Clear,250,2012-12-19 11:53:00
6:53 AM,28.0,25.0,88,30.02,4.0,West,5.8,-,N/A,,Clear,260,2012-12-19 12:53:00
7:53 AM,28.9,25.0,85,30.05,3.0,WSW,4.6,-,N/A,,Clear,250,2012-12-19 13:53:00
8:53 AM,30.0,26.1,85,30.05,3.0,Calm,Calm,-,N/A,,Clear,0,2012-12-19 14:53:00
9:53 AM,30.9,27.0,85,30.06,3.0,WNW,3.5,-,N/A,,Clear,290,2012-12-19 15:53:00
10:53 AM,33.1,27.0,78,30.07,4.0,WNW,3.5,-,N/A,,Haze,300,2012-12-19 16:53:00
11:53 AM,34.0,27.0,75,30.04,5.0,NNW,3.5,-,N/A,,Haze,330,2012-12-19 17:53:00
12:53 PM,36.0,28.0,73,30.05,6.0,Variable,3.5,-,N/A,,Haze,0,2012-12-19 18:53:00
1:15 PM,35.6,28.4,75,30.04,5.0,SSW,4.6,-,N/A,,Haze,200,2012-12-19 19:15:00
1:53 PM,36.0,28.0,73,30.06,5.0,Calm,Calm,-,N/A,,Haze,0,2012-12-19 19:53:00
2:05 PM,35.6,28.4,75,30.03,5.0,Calm,Calm,-,N/A,,Haze,0,2012-12-19 20:05:00
2:39 PM,35.6,28.4,75,30.03,6.0,Calm,Calm,-,N/A,,Haze,0,2012-12-19 20:39:00
2:53 PM,36.0,28.0,73,30.06,6.0,Calm,Calm,-,N/A,,Haze,0,2012-12-19 20:53:00
3:00 PM,35.6,28.4,75,30.04,6.0,South,3.5,-,N/A,,Haze,170,2012-12-19 21:00:00
3:53 PM,35.1,28.0,76,30.08,6.0,SSE,5.8,-,N/A,,Haze,150,2012-12-19 21:53:00
4:53 PM,35.1,28.0,76,30.08,8.0,ESE,3.5,-,N/A,,Overcast,110,2012-12-19 22:53:00
5:53 PM,34.0,28.9,82,30.06,6.0,ENE,6.9,-,N/A,,Haze,60,2012-12-19 23:53:00
6:01 PM,33.8,28.4,81,30.04,6.0,ENE,5.8,-,N/A,,Haze,60,2012-12-20 00:01:00
6:53 PM,35.1,28.9,78,30.05,6.0,ENE,5.8,-,N/A,,Haze,60,2012-12-20 00:53:00
7:53 PM,36.0,30.9,82,30.04,7.0,ENE,8.1,-,N/A,,Overcast,70,2012-12-20 01:53:00
8:53 PM,37.0,33.1,86,30.01,6.0,ENE,11.5,-,0.00,,Overcast,70,2012-12-20 02:53:00
9:53 PM,37.9,35.1,89,29.94,5.0,East,16.1,-,0.01,Rain,Light Rain,80,2012-12-20 03:53:00
10:23 PM,39.2,35.6,87,29.93,6.0,East,13.8,-,0.00,,Overcast,90,2012-12-20 04:23:00
10:53 PM,39.9,36.0,86,29.91,4.0,East,17.3,-,0.01,Rain,Light Rain,90,2012-12-20 04:53:00
11:07 PM,39.2,37.4,93,29.88,2.5,East,17.3,24.2,0.04,Rain,Rain,90,2012-12-20 05:07:00
11:34 PM,39.2,35.6,87,29.87,3.0,East,15.0,23.0,0.07,Rain,Light Rain,90,2012-12-20 05:34:00
11:53 PM,39.0,35.1,86,29.86,4.0,East,17.3,-,0.08,Rain,Light Rain,80,2012-12-20 05:53:00